CW8914 Weather Reports


time (UTC)temp
C
wind
direction
speed
KPH
gust
KPH
rain 1hr
cm
rain 24hr
cm
rain mn
cm
humidity
%
barometer
mb
20260906231648 19 274 4.8 12.9 0.00 0.00 0.00 39 1019.6
20260906230630 19 284 6.4 12.9 0.00 0.00 0.00 39 1019.7
20260906225635 19 306 6.4 16.1 0.00 0.00 0.00 38 1019.6
20260906224622 20 264 8.0 16.1 0.00 0.00 0.00 37 1019.7
20260906223626 20 292 8.0 19.3 0.00 0.00 0.00 36 1019.7
20260906222629 20 312 3.2 17.7 0.00 0.00 0.00 35 1019.8
20260906221633 20 279 9.7 19.3 0.00 0.00 0.00 34 1019.9
20260906220621 20 288 11.3 17.7 0.00 0.00 0.00 34 1020.1
20260906215627 20 267 11.3 17.7 0.00 0.00 0.00 33 1020.0
20260906214651 20 178 6.4 17.7 0.00 0.00 0.00 32 1020.2
20260906213632 20 294 8.0 19.3 0.00 0.00 0.00 34 1020.0
20260906212635 20 282 9.7 22.5 0.00 0.00 0.00 33 1020.0
20260906211621 20 285 8.0 17.7 0.00 0.00 0.00 33 1020.2
20260906210626 20 315 9.7 16.1 0.00 0.00 0.00 32 1020.2
20260906205632 20 232 8.0 16.1 0.00 0.00 0.00 32 1020.5
20260906204635 20 252 6.4 20.9 0.00 0.00 0.00 31 1020.5
20260906203623 21 252 9.7 19.3 0.00 0.00 0.00 29 1020.5
20260906202625 21 294 8.0 19.3 0.00 0.00 0.00 29 1020.5
20260906201629 20 233 12.9 20.9 0.00 0.00 0.00 29 1020.6
20260906200633 20 294 9.7 22.5 0.00 0.00 0.00 29 1020.7
20260906195638 20 238 12.9 30.6 0.00 0.00 0.00 28 1021.0
20260906194625 20 300 11.3 22.5 0.00 0.00 0.00 26 1020.8
20260906193629 20 226 3.2 22.5 0.00 0.00 0.00 26 1020.8
20260906192633 21 185 1.6 19.3 0.00 0.00 0.00 27 1020.8
20260906191634 20 267 3.2 19.3 0.00 0.00 0.00 26 1021.1
20260906190621 20 261 1.6 16.1 0.00 0.00 0.00 26 1020.8
20260906185628 20 254 9.7 17.7 0.00 0.00 0.00 26 1021.2
20260906184631 20 236 8.0 16.1 0.00 0.00 0.00 28 1021.2
20260906183634 20 202 6.4 24.1 0.00 0.00 0.00 27 1021.4
20260906182617 20 180 8.0 20.9 0.00 0.00 0.00 27 1021.5
20260906181624 19 206 11.3 20.9 0.00 0.00 0.00 28 1021.9
20260906180644 20 221 12.9 24.1 0.00 0.00 0.00 27 1021.9
20260906175632 20 103 3.2 9.7 0.00 0.00 0.00 31 1021.8
20260906174635 19 211 16.1 27.4 0.00 0.00 0.00 31 1022.3
20260906173617 18 244 8.0 20.9 0.00 0.00 0.00 31 1022.3
20260906172620 18 171 4.8 19.3 0.00 0.00 0.00 32 1022.4
20260906171626 18 231 3.2 14.5 0.00 0.00 0.00 32 1022.3
20260906170631 18 253 9.7 16.1 0.00 0.00 0.00 33 1022.4
20260906165617 18 205 4.8 12.9 0.00 0.00 0.00 33 1022.4
20260906164620 17 194 6.4 14.5 0.00 0.00 0.00 34 1022.5
20260906163627 17 224 8.0 19.3 0.00 0.00 0.00 35 1022.6
20260906162630 17 167 9.7 20.9 0.00 0.00 0.00 34 1022.7
20260906161633 17 245 9.7 16.1 0.00 0.00 0.00 34 1022.6
20260906160617 17 185 8.0 16.1 0.00 0.00 0.00 34 1022.6
20260906155642 17 192 6.4 17.7 0.00 0.00 0.00 34 1022.6
20260906154627 17 174 6.4 12.9 0.00 0.00 0.00 35 1022.6
20260906153630 16 173 6.4 16.1 0.00 0.00 0.00 36 1022.6
20260906152632 16 181 4.8 17.7 0.00 0.00 0.00 37 1022.7
20260906151656 14 178 9.7 22.5 0.00 0.00 0.00 41 1022.6
20260906150624 11 32 3.2 6.4 0.00 0.00 0.00 54 1022.5
20260906145630 9 207 1.6 4.8 0.00 0.00 0.00 57 1022.6
20260906144631 8 204 1.6 6.4 0.00 0.00 0.00 61 1022.6
20260906143634 7 144 0.0 4.8 0.00 0.00 0.00 62 1022.7
20260906142616 6 140 0.0 4.8 0.00 0.00 0.00 64 1022.7
20260906141644 5 140 1.6 3.2 0.00 0.00 0.00 66 1022.6
20260906140626 5 140 0.0 4.8 0.00 0.00 0.00 66 1022.7
20260906135650 5 140 0.0 3.2 0.00 0.00 0.00 66 1022.6
20260906134654 5 140 0.0 1.6 0.00 0.00 0.00 64 1022.5
20260906133634 5 140 0.0 3.2 0.00 0.00 0.00 63 1022.4
20260906132622 4 140 1.6 3.2 0.00 0.00 0.00 64 1022.4
20260906131623 4 140 0.0 3.2 0.00 0.00 0.00 64 1022.2
20260906130625 4 140 0.0 1.6 0.00 0.00 0.00 64 1022.3
20260906125630 5 140 0.0 1.6 0.00 0.00 0.00 61 1022.2
20260906124634 5 140 0.0 0.0 0.00 0.00 0.00 61 1022.2
20260906123622 5 140 0.0 0.0 0.00 0.00 0.00 60 1022.2
20260906122645 5 140 0.0 1.6 0.00 0.00 0.00 59 1022.2
20260906121647 6 140 0.0 1.6 0.00 0.00 0.00 57 1022.3
20260906120623 6 140 0.0 1.6 0.00 0.00 0.00 56 1022.2
20260906115626 6 140 0.0 1.6 0.00 0.00 0.00 55 1022.3
20260906114630 6 140 1.6 3.2 0.00 0.00 0.00 55 1022.3
20260906113617 6 140 0.0 1.6 0.00 0.00 0.00 56 1022.3
20260906112618 6 140 0.0 1.6 0.00 0.00 0.00 56 1022.2
20260906111621 6 140 0.0 3.2 0.00 0.00 0.00 55 1022.2
20260906110625 6 140 0.0 3.2 0.00 0.00 0.00 55 1022.4
20260906105630 6 140 1.6 3.2 0.00 0.00 0.00 56 1022.4
20260906104618 6 140 0.0 3.2 0.00 0.00 0.00 56 1022.3
20260906103619 6 140 1.6 3.2 0.00 0.00 0.00 54 1022.2
20260906102621 6 140 1.6 4.8 0.00 0.00 0.00 53 1022.2
20260906101625 6 140 3.2 4.8 0.00 0.00 0.00 54 1022.2
20260906100633 6 140 1.6 3.2 0.00 0.00 0.00 56 1022.2
20260906095617 6 140 1.6 3.2 0.00 0.00 0.00 55 1022.1
20260906094621 6 140 1.6 3.2 0.00 0.00 0.00 56 1022.1
20260906093624 6 140 1.6 3.2 0.00 0.00 0.00 57 1021.9
20260906092632 6 140 1.6 3.2 0.00 0.00 0.00 58 1021.9
20260906091635 6 140 1.6 4.8 0.00 0.00 0.00 59 1022.0
20260906090618 6 140 0.0 0.0 0.00 0.00 0.00 60 1022.0
20260906085626 6 140 0.0 0.0 0.00 0.00 0.00 60 1022.0
20260906084629 6 140 0.0 0.0 0.00 0.00 0.00 59 1022.0
20260906083635 6 140 0.0 0.0 0.00 0.00 0.00 58 1022.0
20260906082641 6 140 0.0 0.0 0.00 0.00 0.00 57 1022.1
20260906081623 6 140 0.0 0.0 0.00 0.00 0.00 57 1022.2
20260906080626 7 140 0.0 0.0 0.00 0.00 0.00 56 1022.2
20260906075652 7 140 0.0 1.6 0.00 0.00 0.00 55 1022.2
20260906074635 7 140 0.0 3.2 0.00 0.00 0.00 55 1022.3
20260906073618 7 140 0.0 1.6 0.00 0.00 0.00 53 1022.2
20260906072642 8 140 0.0 1.6 0.00 0.00 0.00 52 1022.2
20260906071625 8 140 0.0 1.6 0.00 0.00 0.00 53 1022.2
20260906070654 8 140 0.0 4.8 0.00 0.00 0.00 51 1022.2
20260906065617 8 140 0.0 1.6 0.00 0.00 0.00 50 1022.3
20260906064620 8 140 1.6 1.6 0.00 0.00 0.00 50 1022.2
20260906063624 8 140 0.0 0.0 0.00 0.00 0.00 50 1022.2
20260906062630 8 140 1.6 3.2 0.00 0.00 0.00 50 1022.2
20260906061636 8 140 0.0 3.2 0.00 0.00 0.00 49 1022.0
20260906060633 9 140 0.0 1.6 0.00 0.00 0.00 47 1022.2
20260906055639 9 140 1.6 3.2 0.00 0.00 0.00 47 1022.1
20260906054620 9 140 0.0 3.2 0.00 0.00 0.00 47 1022.2
20260906053624 10 140 0.0 1.6 0.00 0.00 0.00 47 1022.1
20260906052648 10 140 0.0 4.8 0.00 0.00 0.00 46 1022.1
20260906051633 10 140 1.6 6.4 0.00 0.00 0.00 45 1022.2
20260906050618 10 140 3.2 4.8 0.00 0.00 0.00 45 1022.2
20260906045624 10 140 1.6 4.8 0.00 0.00 0.00 45 1022.2
20260906044628 10 140 3.2 4.8 0.00 0.00 0.00 44 1022.2
20260906043635 10 215 1.6 4.8 0.00 0.00 0.00 45 1022.3
20260906042618 10 215 1.6 4.8 0.00 0.00 0.00 45 1022.4
20260906041623 10 215 1.6 3.2 0.00 0.00 0.00 45 1022.2
20260906040625 11 215 1.6 4.8 0.00 0.00 0.00 44 1022.2
20260906035630 11 216 0.0 1.6 0.00 0.00 0.00 44 1022.2
20260906034618 11 216 1.6 1.6 0.00 0.00 0.00 43 1022.2
20260906033642 12 216 1.6 3.2 0.00 0.00 0.00 41 1022.2
20260906032626 12 216 0.0 1.6 0.00 0.00 0.00 40 1022.1
20260906031629 13 216 0.0 1.6 0.00 0.00 0.00 40 1022.0
20260906030651 13 216 0.0 1.6 0.00 0.00 0.00 38 1022.0
20260906025618 14 216 0.0 1.6 0.00 0.00 0.00 36 1021.9
20260906024622 14 216 0.0 1.6 0.00 0.00 0.00 36 1021.8
20260906023644 15 216 0.0 1.6 0.00 0.00 0.00 33 1021.7
20260906022627 15 216 0.0 1.6 0.00 0.00 0.00 31 1021.6
20260906021634 16 216 0.0 1.6 0.00 0.00 0.00 30 1021.6
20260906020617 17 216 0.0 1.6 0.00 0.00 0.00 29 1021.7
20260906015623 18 216 0.0 3.2 0.00 0.00 0.00 27 1021.7
20260906014647 19 216 1.6 1.6 0.00 0.00 0.00 26 1021.7
20260906013628 20 216 1.6 6.4 0.00 0.00 0.00 24 1021.7
20260906012616 20 204 3.2 11.3 0.00 0.00 0.00 23 1021.7
20260906011618 21 248 4.8 9.7 0.00 0.00 0.00 22 1021.8
20260906010622 21 230 4.8 11.3 0.00 0.00 0.00 21 1021.8
20260906005628 21 234 1.6 12.9 0.00 0.00 0.00 21 1021.8
20260906004636 21 261 3.2 11.3 0.00 0.00 0.00 21 1021.7
20260906003618 21 207 1.6 16.1 0.00 0.00 0.00 21 1021.6
20260906002620 22 169 3.2 17.7 0.00 0.00 0.00 21 1021.5
20260906001644 22 262 8.0 14.5 0.00 0.00 0.00 21 1021.5
20260906000641 22 270 6.4 17.7 0.00 0.00 0.00 21 1021.6
20260905235627 22 268 9.7 17.7 0.00 0.00 0.00 21 1021.7
20260905234634 22 269 6.4 17.7 0.00 0.00 0.00 21 1021.5
20260905233617 22 303 11.3 22.5 0.00 0.00 0.00 22 1021.5
20260905232618 22 288 8.0 19.3 0.00 0.00 0.00 20 1021.4